www.pogodaiklimat.ru

Погода и климат >> Архив погоды >> Индия >> Чхаттисгарх >> Райпур


ПОГОДА в Райпуре

  • Прогноз погоды в Райпуре
  • Монитор погоды в Райпуре

АРХИВ ПОГОДЫ в Райпуре

Время (UTC), дата Ветер
(напр.,м/с)
 
Видим.   Явления Облачность Т
(С)
Тd
(С)
f
(%)
Тe
(С)
Тes
(С)
Комфортность P
(гПа)
Po
(гПа)
Тmin
(С)
Tmax
(С)
R
(мм)
R24
(мм)
S
(см)
03 17.01 штиль 0 4000 м мгла ясно +14.4 +9.8 74 +14 +19 1016.9 1017.0
06 17.01 ЮВ 1 4000 м мгла ясно +24.6 +5.9 30 +24 +39 комфорт 1015.3 1015.0
09 17.01 штиль 0 4000 м мгла ясно +27.0 +2.5 21 +25 +35 комфорт 1012.2 1012.0
12 17.01 штиль 0 4000 м мгла ясно +25.4 +28.2 100 +37 +37 очень
душно
1011.8 1012.0 +28.2
15 17.01 штиль 0 4000 м ясно +19.4 +8.7 50 +20 +20 1014.3 1014.0
03 18.01 штиль 0 2000 м мгла ясно +16.0 +9.0 63 +16 +21 1017.5 1018.0 +13.3
06 18.01 ЮВ 1 2000 м мгла ясно +24.4 +5.0 29 +24 +38 комфорт 1016.4 1016.0
09 18.01 Ю 1 4000 м мгла ясно +27.4 +5.4 25 +26 +35 жарко 1012.5 1013.0
12 18.01 штиль 0 4000 м мгла 1/0
[Ci fib]
+26.0 +8.7 33 +26 +26 жарко 1012.7 1013.0 +28.8
15 18.01 штиль 0 4000 м ясно +19.2 +8.9 51 +20 +20 1015.1 1015.0
03 19.01 СВ 1 4000 м мгла 1/0
[Ci fib]
+16.0 +5.1 48 +17 +21 1018.2 1018.0 +13.3
06 19.01 В 2 4000 м ясно +24.0 +3.6 26 +23 +37 комфорт 1017.3 1017.0
09 19.01 ЮВ 1 4000 м ясно +27.2 +1.5 19 +25 +34 комфорт 1014.6 1015.0
12 19.01 штиль 0 4000 м ясно +26.4 +6.6 28 +26 +26 жарко 1014.1 1014.0 +28.0
15 19.01 штиль 0 4000 м ясно +19.4 +8.7 50 +20 +20 1016.6 1017.0
03 20.01 штиль 0 4000 м мгла ясно +15.8 +6.9 55 +16 +21 1018.8 1019.0 +12.7
06 20.01 штиль 0 4000 м мгла ясно +26.4 +6.6 28 +26 +43 жарко 1017.8 1018.0
09 20.01 З 1 4000 м мгла ясно +29.4 +2.6 18 +27 +36 жарко 1014.0 1014.0
12 20.01 штиль 0 4000 м ясно +29.4 +9.4 29 +29 +29 жарко 1013.3 1013.0 +30.8
15 20.01 штиль 0 4000 м ясно +21.0 +9.9 49 +22 +22 комфорт 1015.7 1016.0
03 21.01 штиль 0 4000 м мгла ясно +16.4 +10.8 69 +16 +21 1017.4 1017.0 +14.2
06 21.01 З 1 4000 м мгла ясно +27.4 +7.8 29 +27 +42 жарко 1016.4 1016.0
09 21.01 З 1 4000 м ясно +30.6 +4.4 19 +29 +37 жарко 1012.1 1012.0
12 21.01 СВ 1 4000 м ясно +28.4 +6.6 25 +27 +27 жарко 1011.1 1011.0 +31.0
15 21.01 В 1 4000 м ясно +21.8 +27.6 100 +28 +28 душно 1013.3 1013.0
03 22.01 Ю 1 4000 м мгла ясно +17.6 +6.3 47 +19 +23 1016.4 1016.0 +14.6
06 22.01 З 2 4000 м ясно +25.6 +12.5 44 +27 +41 жарко 1015.3 1015.0
09 22.01 СЗ 1 4000 м мгла ясно +28.4 +12.3 37 +30 +38 жарко 1012.2 1012.0
12 22.01 З 1 4000 м ясно +27.0 +10.8 36 +28 +28 жарко 1012.7 1013.0 +29.5
15 22.01 штиль 0 4000 м ясно +21.8 +14.3 62 +25 +25 комфорт 1014.5 1015.0
03 23.01 штиль 0 2000 м дымка ясно +18.0 +14.2 78 +18 +23 1016.1 1016.0 +16.3
06 23.01 штиль 0 2000 м мгла ясно +25.4 +14.3 50 +28 +45 жарко 1015.0 1015.0
09 23.01 ЮЗ 2 4000 м мгла ясно +29.4 +7.2 25 +28 +37 жарко 1011.5 1012.0
12 23.01 Ю 1 4000 м ясно +28.0 +11.7 36 +29 +29 жарко 1012.1 1012.0 +29.6
15 23.01 штиль 0 4000 м ясно +22.0 +13.4 58 +25 +25 комфорт 1014.0 1014.0

 

Местоположение метеостанции Райпур (Чхаттисгарх, Индия): широта 21.23 долгота 81.65 высота над уровнем моря 298 м.

В архиве по умолчанию представлена погода в Райпуре за последнюю неделю. Архивные данные за месяц целиком и за предыдущие месяцы, начиная с января 2011 года, Вы можете получить, выбрав интересующий диапазон дат из раскрывающегося списка и нажав кнопку "Ввод!".


*Определитесь, кто Вы:
робот инопланетянин человек

Внимание! Время в таблицах - всемирное. Для получения местного времени необходимо прибавить поправку, которая равна 5.5 ч.

Смотрите также архив погоды в соседних городах и на ближайших метеорологических станциях:

Погода в Дурге (Чхаттисгарх, Индия) (39 км)
Погода в Раджнандгаоне (Чхаттисгарх, Индия) (66 км)
Погода в Биласпуре (Чхаттисгарх, Индия) (111 км)
Погода в Райпур аэропорту (Чхаттисгарх, Индия) (111 км)
Погода в Малейнджкханде (Мадхья-Прадеш, Индия) (130 км)
Погода в Гондии (Махараштра, Индия) (153 км)
Погода в Пендра-роуде (Чхаттисгарх, Индия) (173 км)
Погода в Брамапури (Махараштра, Индия) (200 км)
Погода в Мандле (Мадхья-Прадеш, Индия) (200 км)
Погода в Титилагаре (Орисса, Индия) (200 км)

Пояснения к столбцам:

Ветер - указаны скорость ветра в м/с - средняя за 10 мин, порывы в срок и между сроками (в фигурных скобках) и направление, откуда дует ветер: С - северный, СВ - северо-восточный, В - восточный, ЮВ - юго-восточный, Ю - южный, ЮЗ - юго-западный, З - западный, СЗ - северо-западный.
Видимость - горизонтальная дальность видимости в метрах или километрах. При видимости от 1 до 10 км при отсутствии осадков обычно наблюдается дымка, при ухудшении видимости до 1 км и менее - туман. В сухую погоду видимость может ухудшаться дымом, пылью или мглою.
Явления - указаны атмосферные явления, наблюдавшиеся в срок или в последний час перед сроком; фигурными скобками обозначены явления, наблюдавшиеся между сроками (за 1-3 часа до срока); квадратными скобками обозначены град или гололедные отложения с указанием их диаметра в мм.
Облачность - указаны через наклонную черту общая и нижняя облачность в баллах и высота нижней границы облаков в метрах; квадратными скобками обозначены формы облаков: Ci - перистые, Cs - перисто-слоистые, Cc - перисто-кучевые, Ac - высококучевые, As - высокослоистые, Sc - слоисто-кучевые, Ns - слоисто-дождевые, Cu - кучевые, Cb - кучево-дождевые. Подробнее классификацию облаков см. в Атласе облаков (PDF).
T - Температура воздуха - температура, измеренная на высоте 2 м над землей.
Td - Температура точки росы - температура, при понижении до которой содержащийся в воздухе водяной пар достигнет насыщения.
f - Относительная влажность воздуха - влажноcть воздуха, измеренная на высоте 2 м над землей.
Te - Эффективная температура - температура, которую ощущает одетый по сезону человек в тени. Характеристика душности погоды. При расчете учитывается влияние влажности воздуха и скорости ветра на теплоощущения человека.
Tes - Эффективная температура на солнце - температура, которую ощущает человек, с поправкой на солнечный нагрев. Характеристика знойности погоды. Зависит от высоты солнца над горизонтом, облачности и скорости ветра. Ночью, в пасмурную погоду, а также при ветре 12 м/с и более поправка равна нулю.
P - Атмосферное давление - приведенное к уровню моря атмосферное давление.
Po - Атмосферное давление - измеренное на уровне метеостанции атмосферное давление.
Tmin - Минимальная температура - минимум температуры воздуха на высоте 2 м над землей.
Tmax - Максимальная температура - максимум температуры воздуха на высоте 2 м над землей.
R - Количество осадков - Количество выпавших осадков за период времени, мм. При наведении курсора мыши на число - период времени, за который выпало указанное количество осадков.
R24 - Количество осадков - Количество выпавших осадков за 24 часа, мм.
S - Снежный покров - Высота снежного покрова, см. При наведении курсора мыши на число - состояние снежного покрова и степень покрытия местности в баллах.